User: anonymous   Login
Location: Unspecified
(0.0000°N, 0.0000°E)
Time: 19:24:36
(UTC+02:00)
Language:

Cosmos 407 Rocket - Orbit

View from above orbital plane
View from above orbital plane
View from above satellite
View from above satellite

Ground track
Ground track

The orbit data is extracted from the following two-line orbital elements,

1 05175U 71035B   17295.65748759  .00000043  00000-0  22682-4 0  9990
2 05175  74.0483 334.6235 0029290 154.1857 206.0766 14.37874422433262
Epoch (UTC): 22 October 2017 15:46:46
Eccentricity: 0.0029290
inclination: 74.0483°
perigee height: 744 km
apogee height: 786 km
right ascension of ascending node: 334.6235°
argument of perigee: 154.1857°
revolutions per day: 14.37874422
mean anomaly at epoch: 206.0766°
orbit number at epoch: 43326

The dashed part of the orbit path shows where the satellite is in the earth's shadow,  

DLR